Home > Weather > Buenos Aires > Past weeks

Flag for Argentina Past Weather in Buenos Aires, Argentina — Yesterday and Last 2 Weeks

Now
59 °F

Sunny.


Feels Like: 59 °F
Forecast: 50 / 59 °F
Wind: 5 mph from East

Location: Buenos Aires Airport

Current Time: Jun 29, 2016 at 5:11:56 PM

Latest Report: Jun 29, 2016 at 4:00 PM


Visibility: 10 mi

Pressure: 30.07 "Hg

Humidity: 77%

Dew Point: 52 °F

Location of Buenos AiresLocation

Past Weather in Buenos Aires — Graph

°F

Buenos Aires Temperature Yesterday

Maximum temperature yesterday: 50 °F (at 12:00 AM)
Minimum temperature yesterday: 48 °F (at 2:00 AM)
Average temperature yesterday: 49 °F

High & Low Weather Summary for the Past Weeks

 TemperatureHumidityPressure
High64 °F (Jun 17, 4:00 PM)100% (Jun 16, 12:00 AM)30.48 "Hg (Jun 16, 12:00 AM)
Low43 °F (Jun 20, 8:00 AM)42% (Jun 17, 2:00 PM)30.09 "Hg (Jun 29, 2:00 PM)
Average52 °F82%30.26 "Hg
* Reported Jun 14 3:00 PM — Jun 29 3:00 PM, Buenos Aires, Weather by CustomWeather, © 2016

Note: Actual official high and low records may vary slightly from our data, if they occured in-between our weather recording intervals... More about our weather records

Advertising

Buenos Aires Weather History for the Previous 24 Hours

Scroll right to see more
 ConditionsComfort  
Time TempWeatherWind HumidityBarometerVisibility
3:00 PM
Wed, Jun 29
59 °FSunny.3 mph77%30.09 "Hg10 mi
2:00 PM57 °FSunny.6 mph82%30.09 "Hg10 mi
1:00 PM55 °FSunny.6 mph82%30.12 "Hg10 mi
12:00 PM54 °FSunny.5 mph88%30.15 "Hg10 mi
11:00 AM52 °FSunny.5 mph94%30.15 "Hg10 mi
10:00 AM50 °FScattered clouds.6 mph94%30.15 "HgN/A
9:00 AM48 °FFog.6 mph100%30.15 "Hg1 mi
8:00 AM48 °FScattered clouds.6 mph94%30.15 "HgN/A
7:00 AM50 °FClear.8 mph88%30.12 "Hg10 mi
6:00 AM50 °FPassing clouds.7 mph88%30.12 "HgN/A
5:00 AM48 °FClear.7 mph94%30.12 "Hg10 mi
4:00 AM46 °FClear.5 mph93%30.15 "Hg10 mi
3:00 AM48 °FClear.3 mph87%30.15 "Hg10 mi
2:00 AM48 °FClear.8 mph87%30.15 "Hg10 mi
1:00 AM46 °FClear.6 mph87%30.15 "Hg10 mi
12:00 AM50 °FPassing clouds.8 mph76%30.15 "HgN/A
11:00 PM
Tue, Jun 28
50 °FOvercast.8 mph82%30.18 "HgN/A
10:00 PM50 °FOvercast.8 mph82%30.18 "HgN/A
9:00 PM50 °FOvercast.8 mph76%30.18 "HgN/A
8:00 PM50 °FOvercast.10 mph76%30.15 "HgN/A
7:00 PM50 °FOvercast.8 mph82%30.15 "HgN/A
6:00 PM50 °FOvercast.12 mph82%30.15 "HgN/A
5:00 PM50 °FPassing clouds.9 mph88%30.15 "HgN/A
Weather by CustomWeather, © 2016

See weather overviewHow to use our weather pages